Вернуться в каталог

HULIANWANG DIGUI-35

АктивенСвязьPO
NORAD 64956·PAYLOAD·🇨🇳 China

Запущен Jul 27, 2025 с Taiyuan Satellite Launch Center

Loading…

Ближайшие Пролёты (ближайшие 24 часа)

TLE

СвежийSource: Space-Track

Эпоха: Sep 14, 2026, 22:14 UTC

1 64956U 25159A   26257.92707518 -.00000068  00000-0 -19302-3 0  9997
2 64956  86.4894 252.0984 0001776 202.9759 157.1296 13.24407733 55001

Отслеживайте HULIANWANG DIGUI-35 в реальном времени с AllMySat

Download on the App Store